Location: Gniazdowice
(50.2124°N, 20.2673°E)
Time: 22:50:59
(UTC+00:00)

Meteor 1-28 Rocket - Pass Details

Date: 12 August 2024
Orbit: 468 x 483 km, 97.5° (Epoch: 08 September)

Event Time Altitude Azimuth Distance (km) Brightness Sun altitude
Exits shadow 00:16:51 - 116° (ESE) 1,713 5.8 -21.8°
Reaches altitude 10° 00:16:58 10° 115° (ESE) 1,676 5.8 -21.8°
Maximum altitude 00:19:43 21° 65° (ENE) 1,141 5.5 -21.6°
Drops below altitude 10° 00:22:29 10° 14° (NNE) 1,679 6.9 -21.4°
Sets 00:24:54 0° 359° (N) 2,561 7.8 -21.2°
